TimeEST,TemperatureF,Dew PointF,Humidity,Sea Level PressureIn,VisibilityMPH,Wind Direction,Wind SpeedMPH,Gust SpeedMPH,PrecipitationIn,Events,Conditions,WindDirDegrees,DateUTC
12:52 AM,24.1,12.0,60,29.96,10.0,West,12.7,20.7,N/A,,Clear,260,2013-01-04 05:52:00
1:52 AM,24.1,12.9,62,29.96,10.0,West,12.7,-,N/A,,Clear,270,2013-01-04 06:52:00
2:52 AM,24.1,12.9,62,29.96,10.0,WNW,8.1,-,N/A,,Clear,290,2013-01-04 07:52:00
3:52 AM,25.0,14.0,63,29.95,10.0,West,15.0,-,N/A,,Clear,260,2013-01-04 08:52:00
4:52 AM,24.1,14.0,65,29.95,10.0,West,9.2,-,N/A,,Clear,280,2013-01-04 09:52:00
5:52 AM,21.9,12.9,68,29.96,10.0,NW,5.8,-,N/A,,Partly Cloudy,320,2013-01-04 10:52:00
6:52 AM,19.0,12.9,77,29.96,10.0,Calm,Calm,-,N/A,,Scattered Clouds,0,2013-01-04 11:52:00
7:52 AM,28.9,18.0,64,29.97,10.0,WSW,8.1,-,N/A,,Overcast,240,2013-01-04 12:52:00
8:52 AM,30.0,18.0,61,29.95,10.0,South,8.1,-,N/A,,Overcast,190,2013-01-04 13:52:00
9:52 AM,30.9,18.0,59,29.94,10.0,SW,11.5,18.4,N/A,,Clear,230,2013-01-04 14:52:00
10:52 AM,33.1,19.0,56,29.91,10.0,WSW,6.9,-,N/A,,Clear,240,2013-01-04 15:52:00
11:52 AM,36.0,19.0,50,29.86,10.0,West,17.3,27.6,N/A,,Scattered Clouds,260,2013-01-04 16:52:00
12:52 PM,36.0,19.0,50,29.83,10.0,WSW,10.4,24.2,N/A,,Clear,240,2013-01-04 17:52:00
1:52 PM,37.0,19.9,50,29.82,10.0,Variable,6.9,17.3,N/A,,Clear,0,2013-01-04 18:52:00
2:52 PM,37.0,21.0,52,29.81,10.0,SW,8.1,-,N/A,,Clear,230,2013-01-04 19:52:00
3:52 PM,37.0,19.9,50,29.83,10.0,SW,6.9,-,N/A,,Clear,230,2013-01-04 20:52:00
4:52 PM,35.1,19.9,54,29.82,10.0,Variable,4.6,-,N/A,,Clear,0,2013-01-04 21:52:00
5:52 PM,33.1,19.0,56,29.83,10.0,Calm,Calm,-,N/A,,Clear,0,2013-01-04 22:52:00
6:52 PM,34.0,19.0,54,29.85,10.0,WSW,8.1,-,N/A,,Clear,250,2013-01-04 23:52:00
8:52 PM,33.1,18.0,54,29.84,10.0,Variable,3.5,-,N/A,,Clear,0,2013-01-05 01:52:00
9:52 PM,33.1,17.1,52,29.85,10.0,WSW,6.9,-,N/A,,Mostly Cloudy,240,2013-01-05 02:52:00
10:52 PM,34.0,18.0,52,29.85,10.0,West,10.4,17.3,N/A,,Overcast,280,2013-01-05 03:52:00
11:52 PM,34.0,17.1,50,29.84,10.0,West,13.8,-,N/A,,Partly Cloudy,280,2013-01-05 04:52:00